TimeEDT,TemperatureF,Dew PointF,Humidity,Sea Level PressureIn,VisibilityMPH,Wind Direction,Wind SpeedMPH,Gust SpeedMPH,PrecipitationIn,Events,Conditions,WindDirDegrees,DateUTC
12:15 AM,48.6,48.6,100,30.23,1.5,Calm,Calm,-,N/A,,Mostly Cloudy,0,2013-10-31 04:15:00
12:35 AM,50.5,50.5,100,30.22,2.5,Calm,Calm,-,N/A,,Overcast,0,2013-10-31 04:35:00
12:55 AM,49.1,49.1,100,30.22,2.5,Calm,Calm,-,N/A,,Mostly Cloudy,0,2013-10-31 04:55:00
1:15 AM,49.6,49.6,100,30.21,0.5,Calm,Calm,-,N/A,Fog,Fog,0,2013-10-31 05:15:00
1:35 AM,50.2,50.2,100,30.20,0.5,Calm,Calm,-,N/A,Fog,Fog,0,2013-10-31 05:35:00
1:55 AM,50.5,50.5,100,30.21,4.0,Calm,Calm,-,N/A,,Overcast,0,2013-10-31 05:55:00
2:15 AM,50.4,50.4,100,30.21,4.0,Calm,Calm,-,N/A,,Overcast,0,2013-10-31 06:15:00
2:35 AM,51.1,51.1,100,30.21,2.5,Calm,Calm,-,N/A,,Overcast,0,2013-10-31 06:35:00
2:55 AM,52.2,52.2,100,30.21,3.0,Calm,Calm,-,N/A,,Overcast,0,2013-10-31 06:55:00
3:15 AM,52.3,52.3,100,30.20,3.0,Calm,Calm,-,N/A,,Overcast,0,2013-10-31 07:15:00
3:35 AM,52.3,52.3,100,30.20,3.0,Calm,Calm,-,N/A,,Overcast,0,2013-10-31 07:35:00
3:55 AM,53.2,53.2,100,30.19,4.0,Calm,Calm,-,N/A,,Overcast,0,2013-10-31 07:55:00
4:15 AM,52.5,52.5,100,30.18,4.0,Calm,Calm,-,N/A,,Overcast,0,2013-10-31 08:15:00
4:35 AM,53.2,53.2,100,30.18,4.0,Calm,Calm,-,N/A,,Overcast,0,2013-10-31 08:35:00
4:55 AM,53.1,53.1,100,30.18,2.5,Calm,Calm,-,N/A,,Overcast,0,2013-10-31 08:55:00
5:15 AM,52.9,52.9,100,30.17,3.0,Calm,Calm,-,N/A,,Overcast,0,2013-10-31 09:15:00
5:35 AM,53.1,53.1,100,30.16,2.0,Calm,Calm,-,N/A,,Overcast,0,2013-10-31 09:35:00
5:55 AM,52.7,52.7,100,30.16,2.5,Calm,Calm,-,N/A,,Mostly Cloudy,0,2013-10-31 09:55:00
6:15 AM,52.9,52.9,100,30.16,2.0,Calm,Calm,-,N/A,,Clear,0,2013-10-31 10:15:00
6:35 AM,52.3,52.3,100,30.17,2.5,Calm,Calm,-,N/A,,Clear,0,2013-10-31 10:35:00
6:55 AM,52.3,52.3,100,30.17,2.0,Calm,Calm,-,N/A,,Clear,0,2013-10-31 10:55:00
7:15 AM,52.3,52.3,100,30.16,3.0,Calm,Calm,-,N/A,,Clear,0,2013-10-31 11:15:00
7:35 AM,52.3,52.3,100,30.16,0.5,Calm,Calm,-,N/A,Fog,Fog,0,2013-10-31 11:35:00
7:55 AM,52.2,52.2,100,30.16,0.5,Calm,Calm,-,N/A,Fog,Fog,0,2013-10-31 11:55:00
8:15 AM,54.0,54.0,100,30.15,1.8,Calm,Calm,-,N/A,,Mist,0,2013-10-31 12:15:00
8:35 AM,55.6,55.6,100,30.15,1.8,Calm,Calm,-,N/A,,Mist,0,2013-10-31 12:35:00
8:55 AM,56.3,56.3,100,30.16,2.0,Calm,Calm,-,N/A,,Clear,0,2013-10-31 12:55:00
9:15 AM,57.0,57.0,100,30.16,2.5,Calm,Calm,-,N/A,,Clear,0,2013-10-31 13:15:00
9:35 AM,58.5,58.5,100,30.16,4.0,Calm,Calm,-,N/A,,Clear,0,2013-10-31 13:35:00
9:55 AM,60.3,60.3,100,30.15,4.0,Calm,Calm,-,N/A,,Clear,0,2013-10-31 13:55:00
10:15 AM,61.3,61.3,100,30.15,5.0,South,3.5,-,N/A,,Clear,170,2013-10-31 14:15:00
10:35 AM,63.0,63.0,100,30.14,7.0,South,3.5,-,N/A,,Clear,180,2013-10-31 14:35:00
10:55 AM,63.9,63.9,100,30.12,7.0,South,6.9,-,N/A,,Clear,190,2013-10-31 14:55:00
11:15 AM,65.1,63.9,96,30.12,10.0,South,4.6,-,N/A,,Clear,170,2013-10-31 15:15:00
11:35 AM,66.2,63.3,90,30.11,10.0,South,6.9,-,N/A,,Clear,190,2013-10-31 15:35:00
11:55 AM,66.4,62.8,88,30.11,10.0,South,3.5,-,N/A,,Clear,190,2013-10-31 15:55:00
12:15 PM,67.1,61.2,81,30.10,10.0,South,4.6,-,N/A,,Clear,190,2013-10-31 16:15:00
12:35 PM,68.2,60.4,76,30.09,10.0,South,3.5,-,N/A,,Clear,190,2013-10-31 16:35:00
12:55 PM,68.2,59.9,75,30.09,10.0,SSW,3.5,-,N/A,,Clear,200,2013-10-31 16:55:00
1:15 PM,68.5,59.7,73,30.07,10.0,South,5.8,-,N/A,,Clear,180,2013-10-31 17:15:00
1:35 PM,69.1,60.1,73,30.06,10.0,South,5.8,-,N/A,,Clear,170,2013-10-31 17:35:00
1:55 PM,70.0,60.6,72,30.05,10.0,Calm,Calm,-,N/A,,Clear,0,2013-10-31 17:55:00
2:15 PM,70.7,60.8,71,30.03,10.0,South,5.8,-,N/A,,Clear,180,2013-10-31 18:15:00
2:35 PM,70.9,59.7,68,30.02,10.0,South,4.6,-,N/A,,Clear,180,2013-10-31 18:35:00
2:55 PM,70.9,59.7,68,30.01,10.0,South,6.9,-,N/A,,Clear,170,2013-10-31 18:55:00
3:15 PM,70.9,59.5,67,30.01,10.0,South,6.9,-,N/A,,Clear,170,2013-10-31 19:15:00
3:35 PM,71.2,59.4,66,30.00,10.0,South,9.2,16.1,N/A,,Clear,190,2013-10-31 19:35:00
3:55 PM,71.2,59.7,67,29.99,10.0,South,10.4,19.6,N/A,,Clear,170,2013-10-31 19:55:00
4:15 PM,71.1,59.9,68,29.99,10.0,South,8.1,16.1,N/A,,Clear,170,2013-10-31 20:15:00
4:35 PM,70.9,59.9,68,29.98,10.0,South,8.1,-,N/A,,Clear,170,2013-10-31 20:35:00
4:55 PM,70.7,60.1,69,29.97,10.0,South,8.1,-,N/A,,Clear,170,2013-10-31 20:55:00
5:15 PM,70.7,59.9,69,29.97,10.0,South,5.8,-,N/A,,Clear,180,2013-10-31 21:15:00
5:35 PM,70.2,59.2,68,29.97,10.0,SSE,8.1,16.1,N/A,,Clear,160,2013-10-31 21:35:00
5:55 PM,70.0,59.0,68,29.97,10.0,South,6.9,-,N/A,,Scattered Clouds,170,2013-10-31 21:55:00
6:15 PM,70.0,59.0,68,29.96,10.0,South,10.4,16.1,N/A,,Scattered Clouds,170,2013-10-31 22:15:00
6:35 PM,69.8,59.0,68,29.95,10.0,South,8.1,-,N/A,,Scattered Clouds,170,2013-10-31 22:35:00
6:55 PM,69.1,59.0,70,29.95,10.0,South,9.2,-,N/A,Rain,Light Rain,180,2013-10-31 22:55:00
7:15 PM,68.9,59.0,71,29.96,10.0,South,6.9,-,N/A,,Scattered Clouds,180,2013-10-31 23:15:00
7:35 PM,68.4,59.2,72,29.95,10.0,South,5.8,-,N/A,,Light Drizzle,170,2013-10-31 23:35:00
7:55 PM,68.2,59.9,75,29.95,10.0,South,8.1,-,N/A,,Light Drizzle,170,2013-10-31 23:55:00
8:15 PM,67.8,60.6,78,29.94,10.0,South,4.6,-,N/A,Rain,Light Rain,170,2013-11-01 00:15:00
8:35 PM,67.3,62.8,85,29.94,10.0,South,4.6,-,N/A,,Clear,170,2013-11-01 00:35:00
8:55 PM,67.3,62.1,83,29.93,10.0,South,6.9,-,N/A,,Scattered Clouds,170,2013-11-01 00:55:00
9:15 PM,67.3,61.2,81,29.92,10.0,South,6.9,-,N/A,,Clear,170,2013-11-01 01:15:00
9:35 PM,67.6,59.9,76,29.92,10.0,South,8.1,-,N/A,,Scattered Clouds,180,2013-11-01 01:35:00
9:55 PM,68.0,59.4,74,29.91,10.0,South,6.9,-,N/A,,Scattered Clouds,190,2013-11-01 01:55:00
10:15 PM,68.2,58.1,70,29.91,10.0,South,6.9,-,N/A,,Clear,180,2013-11-01 02:15:00
10:35 PM,68.7,57.4,67,29.89,10.0,South,6.9,16.1,N/A,,Clear,180,2013-11-01 02:35:00
10:55 PM,68.9,57.0,66,29.89,10.0,South,8.1,18.4,N/A,,Clear,190,2013-11-01 02:55:00
11:15 PM,68.9,56.5,65,29.88,10.0,South,6.9,-,N/A,,Clear,180,2013-11-01 03:15:00
11:35 PM,68.4,56.3,65,29.87,10.0,South,6.9,-,N/A,,Clear,180,2013-11-01 03:35:00
11:55 PM,68.2,56.3,66,29.85,10.0,South,6.9,17.3,N/A,,Clear,180,2013-11-01 03:55:00